User: anonymous   Login
Location: Monroe
(41.9160°N, 83.3980°W)
Time: 09:12:26
(UTC-04:00)
Language:

ISS - Orbit

View from above orbital plane
View from above orbital plane
View from above satellite
View from above satellite

Ground track
Ground track

The orbit data is extracted from the following two-line orbital elements,

1 25544U 98067A   15091.13322843  .00016792  00000-0  24783-3 0  9994
2 25544 051.6458 108.9604 0006791 158.5763 311.9553 15.55469174936043
Epoch (UTC): 01 April 2015 03:11:50
Eccentricity: 0.0006791
inclination: 51.6458°
perigee height: 396 km
apogee height: 405 km
right ascension of ascending node: 108.9604°
argument of perigee: 158.5763°
revolutions per day: 15.55469174
mean anomaly at epoch: 311.9553°
orbit number at epoch: 93604

The dashed part of the orbit path shows where the satellite is in the earth's shadow,  

DLR